Location: Campo Claro
(10.4907°N, 66.8285°W)
Time: 07:18:06
(UTC+00:00)

CORIOLIS - Pass Details

Date: 08 December 2021
Orbit: 818 x 839 km, 98.7° (Epoch: 24 January)

Event Time Altitude Azimuth Distance (km) Brightness Sun altitude
Rises 22:22:01 0° 168° (SSE) 3,348 7.4 -4.6°
Reaches altitude 10° 22:24:21 10° 168° (SSE) 2,418 6.7 -5.1°
Maximum altitude 22:29:43 89° 258° (WSW) 830 4.2 -6.4°
Drops below altitude 10° 22:35:07 10° 347° (NNW) 2,431 6.5 -7.6°
Sets 22:37:28 0° 348° (NNW) 3,367 7.2 -8.1°
